Time,TemperatureF,DewpointF,PressureIn,WindDirection,WindDirectionDegrees,WindSpeedMPH,WindSpeedGustMPH,Humidity,HourlyPrecipIn,Conditions,Clouds,dailyrainin,SoftwareType,DateUTC
2016-07-29 00:11:00,75.0,72.0,29.86,ESE,107,-999.9,-999.0,89,-99.99,,,-99.99,,2016-07-29 04:11:00,
2016-07-29 00:20:00,75.0,72.0,29.86,SE,134,-999.9,-999.0,89,-99.99,,,-99.99,,2016-07-29 04:20:00,
2016-07-29 00:41:00,75.0,72.0,29.86,SE,134,-999.9,-999.0,90,-99.99,,,-99.99,,2016-07-29 04:41:00,
2016-07-29 00:52:00,75.0,72.0,29.87,ESE,108,-999.9,-999.0,90,-99.99,,,-99.99,,2016-07-29 04:52:00,
2016-07-29 01:14:00,75.0,72.0,29.86,North,-9999,-999.9,-999.0,91,-99.99,,,-99.99,,2016-07-29 05:14:00,
2016-07-29 01:22:00,74.0,71.0,29.87,ESE,108,0.0,-999.0,91,-99.99,,,-99.99,,2016-07-29 05:22:00,
2016-07-29 01:32:00,74.0,71.0,29.87,ESE,108,0.0,-999.0,91,-99.99,,,-99.99,,2016-07-29 05:32:00,
2016-07-29 01:42:00,74.0,71.0,29.86,ESE,108,0.0,-999.0,91,-99.99,,,-99.99,,2016-07-29 05:42:00,
2016-07-29 01:52:00,75.0,72.0,29.87,ESE,110,0.0,-999.0,91,-99.99,,,-99.99,,2016-07-29 05:52:00,
2016-07-29 02:06:00,74.0,71.0,29.86,ESE,110,-999.9,-999.0,91,-99.99,,,-99.99,,2016-07-29 06:06:00,
2016-07-29 02:20:00,74.0,71.0,29.87,ESE,110,0.0,1.0,91,-99.99,,,-99.99,,2016-07-29 06:20:00,
2016-07-29 02:29:00,74.0,71.0,29.87,ESE,110,0.0,1.0,91,-99.99,,,-99.99,,2016-07-29 06:29:00,
2016-07-29 02:38:00,74.0,72.0,29.87,ESE,110,0.0,-999.0,92,-99.99,,,-99.99,,2016-07-29 06:38:00,
2016-07-29 02:45:00,74.0,72.0,29.86,ESE,110,0.0,2.0,93,-99.99,,,-99.99,,2016-07-29 06:45:00,
2016-07-29 02:55:00,74.0,72.0,29.86,ESE,110,0.0,2.0,93,-99.99,,,-99.99,,2016-07-29 06:55:00,
2016-07-29 03:06:00,74.0,72.0,29.86,SSE,163,1.0,4.0,93,-99.99,,,-99.99,,2016-07-29 07:06:00,
2016-07-29 03:15:00,74.0,72.0,29.85,SSE,163,0.0,1.0,93,-99.99,,,-99.99,,2016-07-29 07:15:00,
2016-07-29 03:28:00,74.0,72.0,29.85,SSE,163,0.0,1.0,93,-99.99,,,-99.99,,2016-07-29 07:28:00,
2016-07-29 03:49:00,74.0,72.0,29.86,SSW,205,0.0,7.0,93,-99.99,,,-99.99,,2016-07-29 07:49:00,
2016-07-29 03:57:00,75.0,73.0,29.86,SSW,205,0.0,2.0,93,-99.99,,,-99.99,,2016-07-29 07:57:00,
2016-07-29 04:03:00,75.0,73.0,29.86,SSW,205,0.0,2.0,93,-99.99,,,-99.99,,2016-07-29 08:03:00,
2016-07-29 04:13:00,75.0,73.0,29.86,SSW,205,0.0,2.0,93,-99.99,,,-99.99,,2016-07-29 08:13:00,
2016-07-29 04:23:00,75.0,73.0,29.86,SSW,205,0.0,2.0,93,-99.99,,,-99.99,,2016-07-29 08:23:00,
2016-07-29 04:34:00,74.0,72.0,29.86,South,184,0.0,3.0,92,-99.99,,,-99.99,,2016-07-29 08:34:00,
2016-07-29 04:46:00,75.0,73.0,29.86,South,184,0.0,3.0,92,-99.99,,,-99.99,,2016-07-29 08:46:00,
2016-07-29 04:54:00,75.0,73.0,29.86,South,184,0.0,3.0,92,-99.99,,,-99.99,,2016-07-29 08:54:00,
2016-07-29 05:04:00,74.0,72.0,29.86,South,184,0.0,3.0,92,-99.99,,,-99.99,,2016-07-29 09:04:00,
2016-07-29 05:13:00,74.0,72.0,29.86,South,184,0.0,1.0,92,-99.99,,,-99.99,,2016-07-29 09:13:00,
2016-07-29 05:24:00,74.0,72.0,29.86,South,184,0.0,1.0,92,-99.99,,,-99.99,,2016-07-29 09:24:00,
2016-07-29 05:40:00,74.0,72.0,29.86,South,184,0.0,-999.0,92,-99.99,,,-99.99,,2016-07-29 09:40:00,
2016-07-29 06:11:00,74.0,72.0,29.87,South,184,-999.9,-999.0,92,-99.99,,,-99.99,,2016-07-29 10:11:00,
2016-07-29 06:21:00,74.0,72.0,29.88,South,182,0.0,-999.0,93,-99.99,,,-99.99,,2016-07-29 10:21:00,
2016-07-29 06:31:00,74.0,72.0,29.88,South,182,0.0,-999.0,93,-99.99,,,-99.99,,2016-07-29 10:31:00,
2016-07-29 06:40:00,74.0,72.0,29.88,South,180,-999.9,-999.0,93,-99.99,,,-99.99,,2016-07-29 10:40:00,
2016-07-29 07:22:00,74.0,72.0,29.89,South,180,0.0,-999.0,93,-99.99,,,-99.99,,2016-07-29 11:22:00,
2016-07-29 07:32:00,74.0,72.0,29.89,South,180,0.0,-999.0,93,-99.99,,,-99.99,,2016-07-29 11:32:00,
2016-07-29 07:47:00,73.0,71.0,29.89,South,180,0.0,1.0,93,-99.99,,,-99.99,,2016-07-29 11:47:00,
2016-07-29 07:56:00,73.0,71.0,29.90,South,180,0.0,2.0,94,-99.99,,,-99.99,,2016-07-29 11:56:00,
2016-07-29 08:17:00,74.0,72.0,29.90,ESE,119,0.0,-999.0,93,-99.99,,,-99.99,,2016-07-29 12:17:00,
2016-07-29 08:26:00,74.0,72.0,29.90,ESE,119,0.0,-999.0,93,-99.99,,,-99.99,,2016-07-29 12:26:00,
2016-07-29 08:39:00,74.0,72.0,29.90,ESE,112,0.0,-999.0,92,-99.99,,,-99.99,,2016-07-29 12:39:00,
2016-07-29 08:45:00,74.0,72.0,29.90,ESE,112,0.0,2.0,92,-99.99,,,-99.99,,2016-07-29 12:45:00,
2016-07-29 08:58:00,75.0,72.0,29.90,East,100,0.0,6.0,91,-99.99,,,-99.99,,2016-07-29 12:58:00,